Meteo pe oră la Daga

Astăzi, 15 Aprilie, Joi

Timp Temperatura Precipitaţii Vânt Presiune Umiditate
00:00 +16°C° 0.3 mm 1 m/s 617 mmHg 96%
01:00 +15°C° 0.3 mm 1 m/s 617 mmHg 95%
02:00 +15°C° 0.3 mm 1 m/s 617 mmHg 95%
03:00 +15°C° 0 mm 1 m/s 617 mmHg 94%
04:00 +15°C° 0 mm 1 m/s 617 mmHg 93%
05:00 +13°C° 0 mm 0 m/s 617 mmHg 92%
06:00 +14°C° 0 mm 0 m/s 617 mmHg 90%
07:00 +16°C° 0 mm 0 m/s 618 mmHg 87%
08:00 +17°C° 0 mm 0 m/s 619 mmHg 85%
09:00 +18°C° 0.3 mm 0 m/s 619 mmHg 80%
10:00 +21°C° 0.3 mm 1 m/s 619 mmHg 75%
11:00 +23°C° 0.3 mm 1 m/s 620 mmHg 70%
12:00 +23°C° 0.6 mm 1 m/s 619 mmHg 71%
13:00 +23°C° 0.6 mm 1 m/s 618 mmHg 72%
14:00 +23°C° 0.6 mm 1 m/s 617 mmHg 72%
15:00 +22°C° 0.6 mm 1 m/s 617 mmHg 77%
16:00 +22°C° 0.6 mm 1 m/s 617 mmHg 81%
17:00 +21°C° 0.6 mm 1 m/s 616 mmHg 85%
18:00 +20°C° 1 mm 1 m/s 617 mmHg 88%
19:00 +17°C° 1 mm 0 m/s 617 mmHg 90%
20:00 +16°C° 1 mm 0 m/s 617 mmHg 92%
21:00 +15°C° 0.3 mm 0 m/s 617 mmHg 92%
22:00 +15°C° 0.3 mm 0 m/s 617 mmHg 93%
23:00 +15°C° 0.3 mm 0 m/s 617 mmHg 93%

Mâine, 16 Aprilie, Vineri

Timp Temperatura Precipitaţii Vânt Presiune Umiditate
00:00 +15°C° 0.8 mm 0 m/s 617 mmHg 94%
01:00 +15°C° 0.8 mm 0 m/s 616 mmHg 94%
02:00 +15°C° 0.8 mm 0 m/s 616 mmHg 95%
03:00 +14°C° 0.1 mm 0 m/s 616 mmHg 95%
04:00 +14°C° 0.1 mm 0 m/s 616 mmHg 95%
05:00 +14°C° 0.1 mm 0 m/s 616 mmHg 95%
06:00 +15°C° 0.1 mm 0 m/s 617 mmHg 93%
07:00 +16°C° 0.1 mm 0 m/s 618 mmHg 91%
08:00 +19°C° 0.1 mm 1 m/s 619 mmHg 89%
09:00 +20°C° 0.4 mm 1 m/s 619 mmHg 84%
10:00 +20°C° 0.4 mm 2 m/s 619 mmHg 79%
11:00 +21°C° 0.4 mm 2 m/s 619 mmHg 73%
12:00 +21°C° 0.5 mm 2 m/s 619 mmHg 74%
13:00 +21°C° 0.5 mm 2 m/s 618 mmHg 75%
14:00 +21°C° 0.5 mm 2 m/s 618 mmHg 76%
15:00 +20°C° 0.4 mm 2 m/s 617 mmHg 80%
16:00 +20°C° 0.4 mm 2 m/s 617 mmHg 84%
17:00 +19°C° 0.4 mm 2 m/s 617 mmHg 88%
18:00 +19°C° 0.3 mm 1 m/s 617 mmHg 91%
19:00 +18°C° 0.3 mm 1 m/s 617 mmHg 94%
20:00 +14°C° 0.3 mm 0 m/s 617 mmHg 97%
21:00 +14°C° 0.1 mm 0 m/s 617 mmHg 97%
22:00 +14°C° 0.1 mm 0 m/s 617 mmHg 97%
23:00 +14°C° 0.1 mm 0 m/s 617 mmHg 96%

Poimâine, 17 Aprilie, Sâmbătă

Timp Temperatura Precipitaţii Vânt Presiune Umiditate
00:00 +14°C° 0.4 mm 0 m/s 617 mmHg 96%
01:00 +14°C° 0.4 mm 0 m/s 617 mmHg 96%
02:00 +15°C° 0.4 mm 1 m/s 616 mmHg 96%
03:00 +15°C° 0.1 mm 1 m/s 617 mmHg 96%
04:00 +14°C° 0.1 mm 0 m/s 617 mmHg 96%
05:00 +14°C° 0.1 mm 0 m/s 617 mmHg 96%
06:00 +15°C° 0 mm 0 m/s 617 mmHg 95%
07:00 +15°C° 0 mm 0 m/s 618 mmHg 94%
08:00 +18°C° 0 mm 1 m/s 619 mmHg 92%
09:00 +19°C° 0.1 mm 1 m/s 619 mmHg 86%
10:00 +20°C° 0.1 mm 2 m/s 619 mmHg 79%
11:00 +21°C° 0.1 mm 2 m/s 620 mmHg 73%
12:00 +21°C° 0.3 mm 2 m/s 619 mmHg 73%
13:00 +21°C° 0.3 mm 2 m/s 618 mmHg 73%
14:00 +21°C° 0.3 mm 2 m/s 618 mmHg 74%
15:00 +22°C° 0.6 mm 1 m/s 618 mmHg 77%
16:00 +21°C° 0.6 mm 1 m/s 618 mmHg 81%
17:00 +21°C° 0.6 mm 1 m/s 618 mmHg 84%
18:00 +20°C° 0.2 mm 1 m/s 617 mmHg 87%
19:00 +16°C° 0.2 mm 0 m/s 617 mmHg 90%
20:00 +15°C° 0.2 mm 0 m/s 617 mmHg 93%
21:00 +15°C° 0.4 mm 0 m/s 617 mmHg 94%
22:00 +15°C° 0.4 mm 0 m/s 618 mmHg 95%
23:00 +14°C° 0.4 mm 0 m/s 618 mmHg 95%

18 Aprilie, Duminică

Timp Temperatura Precipitaţii Vânt Presiune Umiditate
00:00 +14°C° 1.2 mm 0 m/s 617 mmHg 96%
01:00 +14°C° 1.2 mm 0 m/s 617 mmHg 97%
02:00 +14°C° 1.2 mm 0 m/s 617 mmHg 98%
03:00 +14°C° 1.2 mm 0 m/s 617 mmHg 98%
04:00 +14°C° 1.2 mm 0 m/s 617 mmHg 98%
05:00 +15°C° 1.2 mm 1 m/s 618 mmHg 98%
06:00 +16°C° 0.4 mm 1 m/s 618 mmHg 98%
07:00 +16°C° 0.4 mm 1 m/s 619 mmHg 97%
08:00 +16°C° 0.4 mm 1 m/s 620 mmHg 96%
09:00 +17°C° 0.4 mm 2 m/s 620 mmHg 93%
10:00 +18°C° 0.4 mm 2 m/s 620 mmHg 90%
11:00 +18°C° 0.4 mm 3 m/s 620 mmHg 87%
12:00 +18°C° 0.5 mm 2 m/s 619 mmHg 87%
13:00 +18°C° 0.5 mm 2 m/s 619 mmHg 87%
14:00 +19°C° 0.5 mm 1 m/s 618 mmHg 87%
15:00 +20°C° 0.6 mm 1 m/s 618 mmHg 88%
16:00 +20°C° 0.6 mm 1 m/s 618 mmHg 88%
17:00 +20°C° 0.6 mm 1 m/s 618 mmHg 88%
18:00 +19°C° 0.6 mm 1 m/s 618 mmHg 91%
19:00 +18°C° 0.6 mm 1 m/s 618 mmHg 94%
20:00 +16°C° 0.6 mm 1 m/s 618 mmHg 96%
21:00 +15°C° 0.1 mm 1 m/s 618 mmHg 97%
22:00 +15°C° 0.1 mm 1 m/s 618 mmHg 97%
23:00 +15°C° 0.1 mm 1 m/s 619 mmHg 97%

19 Aprilie, Luni

Timp Temperatura Precipitaţii Vânt Presiune Umiditate
00:00 +15°C° 0.1 mm 1 m/s 618 mmHg 97%
01:00 +15°C° 0.1 mm 0 m/s 618 mmHg 96%
02:00 +15°C° 0.1 mm 0 m/s 618 mmHg 96%
03:00 +15°C° 0.3 mm 0 m/s 618 mmHg 96%
04:00 +15°C° 0.3 mm 0 m/s 618 mmHg 96%
05:00 +15°C° 0.3 mm 0 m/s 618 mmHg 96%
06:00 +16°C° 0.2 mm 1 m/s 619 mmHg 96%
07:00 +16°C° 0.2 mm 1 m/s 619 mmHg 95%
08:00 +16°C° 0.2 mm 1 m/s 620 mmHg 94%
09:00 +18°C° 0.1 mm 1 m/s 620 mmHg 90%
10:00 +18°C° 0.1 mm 2 m/s 620 mmHg 85%
11:00 +19°C° 0.1 mm 3 m/s 620 mmHg 81%
12:00 +20°C° 0.1 mm 3 m/s 620 mmHg 78%
13:00 +20°C° 0.1 mm 2 m/s 619 mmHg 75%
14:00 +21°C° 0.1 mm 2 m/s 619 mmHg 72%
15:00 +20°C° 0.2 mm 2 m/s 618 mmHg 76%
16:00 +20°C° 0.2 mm 2 m/s 618 mmHg 81%
17:00 +20°C° 0.2 mm 1 m/s 618 mmHg 85%
18:00 +19°C° 0.1 mm 1 m/s 618 mmHg 88%
19:00 +18°C° 0.1 mm 1 m/s 618 mmHg 91%
20:00 +16°C° 0.1 mm 1 m/s 618 mmHg 93%
21:00 +14°C° 0.1 mm 0 m/s 618 mmHg 94%
22:00 +14°C° 0.1 mm 0 m/s 618 mmHg 94%
23:00 +14°C° 0.1 mm 0 m/s 618 mmHg 94%

20 Aprilie, Marţi

Timp Temperatura Precipitaţii Vânt Presiune Umiditate
00:00 +14°C° 0 mm 0 m/s 618 mmHg 94%
01:00 +14°C° 0 mm 0 m/s 618 mmHg 94%
02:00 +15°C° 0 mm 0 m/s 617 mmHg 93%
03:00 +15°C° 0 mm 1 m/s 617 mmHg 93%
04:00 +15°C° 0 mm 1 m/s 617 mmHg 93%
05:00 +15°C° 0 mm 1 m/s 617 mmHg 93%
06:00 +16°C° 0 mm 1 m/s 618 mmHg 92%
07:00 +18°C° 0 mm 1 m/s 619 mmHg 91%
08:00 +18°C° 0 mm 1 m/s 619 mmHg 90%
09:00 +19°C° 0.4 mm 1 m/s 619 mmHg 85%
10:00 +20°C° 0.4 mm 2 m/s 620 mmHg 80%
11:00 +21°C° 0.4 mm 2 m/s 620 mmHg 76%
12:00 +21°C° 0.7 mm 2 m/s 619 mmHg 77%
13:00 +21°C° 0.7 mm 2 m/s 619 mmHg 77%
14:00 +21°C° 0.7 mm 2 m/s 618 mmHg 78%
15:00 +20°C° 0.6 mm 2 m/s 618 mmHg 81%
16:00 +21°C° 0.6 mm 1 m/s 618 mmHg 84%
17:00 +20°C° 0.6 mm 1 m/s 617 mmHg 86%
18:00 +19°C° 0.2 mm 1 m/s 617 mmHg 89%
19:00 +18°C° 0.2 mm 1 m/s 617 mmHg 92%
20:00 +16°C° 0.2 mm 1 m/s 617 mmHg 95%
21:00 +15°C° 0 mm 1 m/s 617 mmHg 95%
22:00 +14°C° 0 mm 0 m/s 617 mmHg 95%
23:00 +14°C° 0 mm 0 m/s 618 mmHg 95%
Arată mai mult

Formular de consimțământ

Meteoprog și furnizorii noștri de servicii pot stoca și accesa date personale, precum cookies, identificatori de dispozitiv sau alte tehnologii similare pe dispozitivul dumneavoastră și procesa astfel de date pentru a personaliza conținutul și reclamele, dar și pentru a oferi caracteristici de social media și pentru a analiza traficul.

  • Stocarea și/sau accesarea informațiilor pe dispozitivul dumneavoastră

    Cookies, identificatori de dispozitiv sau alte informații pot fi stocate sau accesate pe dispozitiv în scopurile indicate mai sus.

  • Reclame și conținut personalizat, evaluarea reclamelor și a conținutului, informații despre audiențe și dezvoltarea produselor

    Reclamele și conținutul pot fi personalizate pe baza unui profil. Pot fi adăugate date suplimentare pentru a personaliza mai bine reclamele și conținutul. Performanța reclamelor și conținutului poate fi măsurată. Pot fi obținute informații despre utilizatorii care au văzut reclamele și conținutul. Aceste date pot fi utilizate pentru a dezvolta sau îmbunătăți experiența utilizatorilor, sistemele și software-ul.

Dând clic pe ‘Sunt de acord’, permiteți utilizarea cookie-urilor menționate, a identificatorilor de dispozitiv, balizelor web sau altor tehnologii similare. Setările pot fi modificate din browser-ul dispozitivului dumneavoastră.

În anumite scopuri, interesele legitime pot prima asupra consimțământului. Puteți citi mai multe informații în acest sens în Politica privind Confidențialitatea Datelor și Cookie.